TimeEDT,TemperatureF,Dew PointF,Humidity,Sea Level PressureIn,VisibilityMPH,Wind Direction,Wind SpeedMPH,Gust SpeedMPH,PrecipitationIn,Events,Conditions,WindDirDegrees,DateUTC
12:53 AM,71.1,64.0,78,30.09,10.0,North,5.8,-,N/A,,Clear,360,2012-10-11 04:53:00
1:53 AM,72.0,64.0,76,30.09,10.0,North,5.8,-,N/A,,Clear,350,2012-10-11 05:53:00
2:53 AM,72.0,64.0,76,30.08,10.0,North,8.1,-,N/A,,Clear,10,2012-10-11 06:53:00
3:53 AM,72.0,64.0,76,30.08,10.0,North,6.9,-,N/A,,Clear,10,2012-10-11 07:53:00
4:53 AM,72.0,59.0,64,30.07,10.0,NNE,6.9,-,N/A,,Clear,20,2012-10-11 08:53:00
5:53 AM,73.9,62.1,66,30.07,10.0,NNE,6.9,-,N/A,,Clear,30,2012-10-11 09:53:00
6:53 AM,75.0,64.0,69,30.08,10.0,NNE,10.4,-,N/A,,Clear,20,2012-10-11 10:53:00
7:53 AM,75.9,64.9,69,30.11,10.0,NNE,8.1,-,N/A,,Mostly Cloudy,30,2012-10-11 11:53:00
8:53 AM,78.1,64.9,64,30.12,10.0,NE,11.5,-,N/A,,Scattered Clouds,40,2012-10-11 12:53:00
9:53 AM,79.0,64.9,62,30.14,10.0,NE,11.5,-,N/A,,Scattered Clouds,40,2012-10-11 13:53:00
10:53 AM,82.0,64.9,56,30.15,10.0,NE,12.7,-,N/A,,Clear,40,2012-10-11 14:53:00
11:53 AM,82.9,66.0,56,30.16,10.0,NNE,13.8,20.7,N/A,,Clear,30,2012-10-11 15:53:00
12:53 PM,82.9,66.0,56,30.14,10.0,NNE,15.0,19.6,N/A,,Scattered Clouds,30,2012-10-11 16:53:00
1:53 PM,84.0,66.0,55,30.12,10.0,NE,10.4,20.7,N/A,,Scattered Clouds,40,2012-10-11 17:53:00
2:53 PM,84.0,66.0,55,30.12,10.0,NNE,12.7,23.0,N/A,,Partly Cloudy,30,2012-10-11 18:53:00
3:53 PM,82.0,66.0,58,30.12,10.0,NNE,12.7,21.9,N/A,,Scattered Clouds,20,2012-10-11 19:53:00
4:53 PM,82.0,64.9,56,30.12,10.0,NE,13.8,19.6,N/A,,Clear,50,2012-10-11 20:53:00
7:53 PM,78.1,63.0,60,30.12,10.0,NNE,15.0,19.6,N/A,,Clear,30,2012-10-11 23:53:00
9:53 PM,78.1,64.0,62,30.14,10.0,NE,10.4,18.4,N/A,,Clear,40,2012-10-12 01:53:00
11:53 PM,78.1,64.9,64,30.13,10.0,NE,11.5,-,N/A,,Mostly Cloudy,40,2012-10-12 03:53:00